Location: La Bilong�re
(48.1297°N, 1.4584°W)
Time: 07:17:52
(UTC+00:00)

SL-08 R/B - Pass Details

Date: 03 March 2021
Orbit: 949 x 1019 km, 82.9° (Epoch: 13 April)

Event Time Altitude Azimuth Distance (km) Brightness Sun altitude
Exits shadow 20:11:55 25° 165° (SSE) 1,913 5.7 -23.7°
Maximum altitude 20:15:43 63° 93° (E) 1,135 4.5 -24.3°
Drops below altitude 10° 20:22:07 10° 15° (NNE) 2,818 7.0 -25.3°
Sets 20:24:41 0° 12° (NNE) 3,772 7.7 -25.7°
